User: anonymous   Login
Location: Elstree
(51.6403°N, 0.2969°W)
Time: 02:55:47
(UTC+00:00)
Language:

Cosmos 1000 Rocket - Orbit

View from above orbital plane
View from above orbital plane
View from above satellite
View from above satellite

Ground track
Ground track

The orbit data is extracted from the following two-line orbital elements,

1 10777U 78034B   21137.76306986  .00000037  00000-0  21592-4 0  9996
2 10777  82.9440 246.4822 0026991 148.5501   5.5239 13.77438552167328
Epoch (UTC): 17 May 2021 18:18:49
Eccentricity: 0.0026991
inclination: 82.9440°
perigee height: 953 km
apogee height: 993 km
right ascension of ascending node: 246.4822°
argument of perigee: 148.5501°
revolutions per day: 13.77438552
mean anomaly at epoch: 5.5239°
orbit number at epoch: 16732

The dashed part of the orbit path shows where the satellite is in the earth's shadow,  

DLR